Погода в Зимарях

Россия / Алтайский край     53°11′09″N   83°27′52″E
темп.,
°C
ветер,
м/с
пор.,
м/с
влажн.,
%
обл.,
%
осадки,
мм/ч
давл.,
гПа
погр.,
м
16 октября, сб
сб1601:00+1св35760 0.0 103374
04:000св34740 0.0 103246
07:000св34735 0.0 103148
10:00+3всв35615 0.0 1030176
13:00+8всв34475 0.0 1029425
16:00+10всв33445 0.0 1027545
19:00+6всв226268 0.0 102715
22:00+4в227190 0.0 102710
17 октября, вс
вс1701:00+3всв227676 0.0 102610
04:00+2всв228059 0.0 102510
07:00+2в118387 0.0 102610
10:00+4вюв127079 0.0 102684
13:00+9ю224953 0.0 1025421
16:00+11юз234449 0.0 1025667
19:00+7юз226136 0.0 102512
22:00+5зюз22665 0.0 102614
18 октября, пн
пн1801:00+4зюз227089 0.0 102617
04:00+3зюз227298 0.0 102723
07:00+2зюз337371 0.0 102725
10:00+4зюз246297 0.0 1028133
13:00+8зюз344980 0.0 1027544
16:00+10зюз33445 0.0 1027847
19:00+6юз22595 0.0 102710
22:00+4ююз22640 0.0 102811
19 октября, вт
вт1901:00+4ююз22675 0.0 102810
04:00+3ю22695 0.0 102810
07:00+2ююв22725 0.0 102810
10:00+4юв22625 0.0 102897
13:00+9вюв224557 0.0 1027418
16:00+10всв2242100 0.0 1026525
19:00+7всв225749 0.0 102619
22:00+5в336560 0.0 102526
20 октября, ср
ср2001:00+4в22695 0.0 102420
04:00+3в33725 0.0 102422
07:00+2в33725 0.0 102327
10:00+5вюв24645 0.0 1022119
13:00+11юв33485 0.0 1020346
16:00+13юв23415 0.0 1018382
19:00+8юв33586 0.0 101822
22:00+6ююв336322 0.0 101834